When you browse on this site, cookies collect data to enhance your experience and personalize the content and advertising you see.
Visit our Privacy Policy to learn more. By continuing to use the site, you agree to this use of cookies and data.
  • In Schweiz
  • Länderverzeichnis
  • Für 7 Tage
  • Wassertemperatur
  • Wetterkarte
  • Widgets
  • user-avatar
    Anmelden

    Stündliche Wetter Bietigheim-Bissingen

    Heute, 6 Juni, Samstag

    Zeit Temperatur Niederschläge Wind Luftdruck Luftfeuchtigkeit
    00:00 +11°C° 0.5 mm 4 m/S 731 mmHg 93%
    01:00 +13°C° 0 mm 2 m/S 731 mmHg 95%
    02:00 +13°C° 1.3 mm 2 m/S 730 mmHg 95%
    03:00 +12°C° 1.3 mm 2 m/S 730 mmHg 95%
    04:00 +12°C° 1.3 mm 2 m/S 730 mmHg 95%
    05:00 +12°C° 1.7 mm 2 m/S 730 mmHg 95%
    06:00 +12°C° 1.7 mm 2 m/S 730 mmHg 95%
    07:00 +12°C° 1.7 mm 2 m/S 731 mmHg 95%
    08:00 +12°C° 1 mm 2 m/S 731 mmHg 94%
    09:00 +12°C° 1 mm 2 m/S 731 mmHg 94%
    10:00 +12°C° 1 mm 2 m/S 731 mmHg 93%
    11:00 +13°C° 0.3 mm 2 m/S 732 mmHg 92%
    12:00 +13°C° 0.3 mm 2 m/S 732 mmHg 91%
    13:00 +14°C° 0.3 mm 2 m/S 732 mmHg 90%
    14:00 +14°C° 0.2 mm 2 m/S 732 mmHg 89%
    15:00 +14°C° 0.2 mm 2 m/S 732 mmHg 88%
    16:00 +13°C° 0.2 mm 3 m/S 732 mmHg 88%
    17:00 +15°C° 0 mm 2 m/S 732 mmHg 86%
    18:00 +15°C° 0 mm 2 m/S 732 mmHg 84%
    19:00 +16°C° 0 mm 2 m/S 732 mmHg 82%
    20:00 +15°C° 0.1 mm 2 m/S 732 mmHg 84%
    21:00 +14°C° 0.1 mm 1 m/S 733 mmHg 87%
    22:00 +13°C° 0.1 mm 1 m/S 733 mmHg 89%
    23:00 +13°C° 0.2 mm 1 m/S 733 mmHg 90%

    Morgen, 7 Juni, Sonntag

    Zeit Temperatur Niederschläge Wind Luftdruck Luftfeuchtigkeit
    00:00 +13°C° 0.2 mm 2 m/S 733 mmHg 91%
    01:00 +13°C° 0.2 mm 2 m/S 733 mmHg 91%
    02:00 +12°C° 0.2 mm 2 m/S 733 mmHg 92%
    03:00 +12°C° 0.2 mm 2 m/S 734 mmHg 92%
    04:00 +12°C° 0.2 mm 2 m/S 734 mmHg 92%
    05:00 +12°C° 0.1 mm 2 m/S 734 mmHg 90%
    06:00 +12°C° 0.1 mm 2 m/S 734 mmHg 88%
    07:00 +13°C° 0.1 mm 2 m/S 735 mmHg 86%
    08:00 +14°C° 0 mm 2 m/S 735 mmHg 78%
    09:00 +14°C° 0 mm 3 m/S 736 mmHg 69%
    10:00 +16°C° 0 mm 3 m/S 736 mmHg 60%
    11:00 +17°C° 0 mm 3 m/S 736 mmHg 57%
    12:00 +17°C° 0 mm 3 m/S 736 mmHg 53%
    13:00 +18°C° 0 mm 3 m/S 736 mmHg 50%
    14:00 +18°C° 0 mm 2 m/S 736 mmHg 50%
    15:00 +18°C° 0 mm 2 m/S 736 mmHg 51%
    16:00 +18°C° 0 mm 2 m/S 737 mmHg 52%
    17:00 +18°C° 0 mm 2 m/S 736 mmHg 58%
    18:00 +18°C° 0 mm 1 m/S 736 mmHg 63%
    19:00 +16°C° 0 mm 1 m/S 736 mmHg 69%
    20:00 +15°C° 0 mm 1 m/S 737 mmHg 73%
    21:00 +13°C° 0 mm 1 m/S 737 mmHg 77%
    22:00 +11°C° 0 mm 0 m/S 737 mmHg 82%
    23:00 +10°C° 0 mm 0 m/S 737 mmHg 83%

    übermorgen, 8 Juni, Montag

    Zeit Temperatur Niederschläge Wind Luftdruck Luftfeuchtigkeit
    00:00 +10°C° 0 mm 0 m/S 737 mmHg 84%
    01:00 +9°C° 0 mm 0 m/S 737 mmHg 86%
    02:00 +9°C° 0 mm 0 m/S 737 mmHg 86%
    03:00 +8°C° 0 mm 0 m/S 737 mmHg 87%
    04:00 +8°C° 0 mm 0 m/S 738 mmHg 87%
    05:00 +10°C° 0 mm 0 m/S 738 mmHg 83%
    06:00 +11°C° 0 mm 0 m/S 738 mmHg 79%
    07:00 +13°C° 0 mm 0 m/S 738 mmHg 74%
    08:00 +14°C° 0.1 mm 0 m/S 738 mmHg 69%
    09:00 +18°C° 0.1 mm 1 m/S 738 mmHg 64%
    10:00 +20°C° 0.1 mm 1 m/S 739 mmHg 58%
    11:00 +19°C° 0.1 mm 2 m/S 738 mmHg 56%
    12:00 +20°C° 0.1 mm 2 m/S 738 mmHg 53%
    13:00 +20°C° 0.1 mm 2 m/S 738 mmHg 50%
    14:00 +20°C° 0.1 mm 2 m/S 738 mmHg 52%
    15:00 +20°C° 0.1 mm 3 m/S 738 mmHg 53%
    16:00 +20°C° 0.1 mm 3 m/S 738 mmHg 55%
    17:00 +19°C° 0 mm 3 m/S 738 mmHg 60%
    18:00 +18°C° 0 mm 2 m/S 738 mmHg 65%
    19:00 +18°C° 0 mm 2 m/S 738 mmHg 71%
    20:00 +17°C° 0 mm 2 m/S 738 mmHg 72%
    21:00 +16°C° 0 mm 2 m/S 738 mmHg 73%
    22:00 +15°C° 0 mm 1 m/S 739 mmHg 74%
    23:00 +14°C° 0 mm 1 m/S 739 mmHg 76%

    9 Juni, Dienstag

    Zeit Temperatur Niederschläge Wind Luftdruck Luftfeuchtigkeit
    00:00 +13°C° 0 mm 1 m/S 739 mmHg 78%
    01:00 +12°C° 0 mm 1 m/S 739 mmHg 81%
    02:00 +12°C° 0 mm 1 m/S 739 mmHg 82%
    03:00 +12°C° 0 mm 1 m/S 739 mmHg 84%
    04:00 +12°C° 0 mm 1 m/S 739 mmHg 85%
    05:00 +13°C° 0 mm 1 m/S 739 mmHg 83%
    06:00 +14°C° 0 mm 2 m/S 739 mmHg 81%
    07:00 +15°C° 0 mm 2 m/S 739 mmHg 78%
    08:00 +16°C° 0.1 mm 2 m/S 739 mmHg 75%
    09:00 +17°C° 0.1 mm 3 m/S 739 mmHg 73%
    10:00 +18°C° 0.1 mm 3 m/S 739 mmHg 70%
    11:00 +19°C° 0.1 mm 3 m/S 739 mmHg 65%
    12:00 +20°C° 0.1 mm 4 m/S 739 mmHg 61%
    13:00 +21°C° 0.1 mm 4 m/S 739 mmHg 56%
    14:00 +21°C° 0.1 mm 4 m/S 739 mmHg 56%
    15:00 +21°C° 0.1 mm 4 m/S 739 mmHg 56%
    16:00 +21°C° 0.1 mm 4 m/S 739 mmHg 57%
    17:00 +20°C° 0.1 mm 3 m/S 739 mmHg 62%
    18:00 +19°C° 0.1 mm 3 m/S 739 mmHg 68%
    19:00 +18°C° 0.1 mm 2 m/S 739 mmHg 73%
    20:00 +18°C° 0.1 mm 2 m/S 739 mmHg 76%
    21:00 +17°C° 0.1 mm 2 m/S 739 mmHg 80%
    22:00 +16°C° 0.1 mm 2 m/S 740 mmHg 83%
    23:00 +16°C° 0.1 mm 2 m/S 740 mmHg 86%

    10 Juni, Mittwoch

    Zeit Temperatur Niederschläge Wind Luftdruck Luftfeuchtigkeit
    00:00 +15°C° 0.1 mm 2 m/S 740 mmHg 88%
    01:00 +15°C° 0.1 mm 2 m/S 740 mmHg 91%
    02:00 +15°C° 0.1 mm 2 m/S 739 mmHg 91%
    03:00 +15°C° 0.1 mm 2 m/S 739 mmHg 92%
    04:00 +14°C° 0.1 mm 2 m/S 739 mmHg 93%
    05:00 +15°C° 0.7 mm 2 m/S 740 mmHg 93%
    06:00 +15°C° 0.7 mm 2 m/S 740 mmHg 92%
    07:00 +15°C° 0.7 mm 2 m/S 740 mmHg 92%
    08:00 +15°C° 0.4 mm 2 m/S 740 mmHg 90%
    09:00 +16°C° 0.4 mm 2 m/S 741 mmHg 87%
    10:00 +16°C° 0.4 mm 2 m/S 741 mmHg 85%
    11:00 +17°C° 0.1 mm 2 m/S 741 mmHg 80%
    12:00 +19°C° 0.1 mm 3 m/S 741 mmHg 76%
    13:00 +20°C° 0.1 mm 3 m/S 741 mmHg 71%
    14:00 +19°C° 0.2 mm 3 m/S 741 mmHg 74%
    15:00 +19°C° 0.2 mm 3 m/S 741 mmHg 77%
    16:00 +19°C° 0.2 mm 3 m/S 741 mmHg 80%
    17:00 +18°C° 0.1 mm 3 m/S 741 mmHg 82%
    18:00 +18°C° 0.1 mm 2 m/S 741 mmHg 83%
    19:00 +17°C° 0.1 mm 2 m/S 741 mmHg 85%
    20:00 +17°C° 0 mm 2 m/S 741 mmHg 85%
    21:00 +16°C° 0 mm 2 m/S 742 mmHg 86%
    22:00 +16°C° 0 mm 3 m/S 742 mmHg 86%
    23:00 +14°C° 0 mm 3 m/S 742 mmHg 88%

    11 Juni, Donnerstag

    Zeit Temperatur Niederschläge Wind Luftdruck Luftfeuchtigkeit
    00:00 +13°C° 0 mm 3 m/S 742 mmHg 89%
    01:00 +13°C° 0 mm 3 m/S 742 mmHg 91%
    02:00 +14°C° 0 mm 2 m/S 742 mmHg 91%
    03:00 +13°C° 0 mm 2 m/S 742 mmHg 92%
    04:00 +13°C° 0 mm 2 m/S 742 mmHg 92%
    05:00 +14°C° 0 mm 2 m/S 742 mmHg 91%
    06:00 +14°C° 0 mm 2 m/S 742 mmHg 90%
    07:00 +14°C° 0 mm 3 m/S 742 mmHg 89%
    08:00 +16°C° 0 mm 3 m/S 742 mmHg 83%
    09:00 +18°C° 0 mm 3 m/S 742 mmHg 77%
    10:00 +19°C° 0 mm 4 m/S 742 mmHg 72%
    11:00 +20°C° 0.2 mm 4 m/S 742 mmHg 67%
    12:00 +21°C° 0.2 mm 4 m/S 742 mmHg 62%
    13:00 +22°C° 0.2 mm 5 m/S 741 mmHg 57%
    14:00 +21°C° 0.1 mm 4 m/S 741 mmHg 59%
    15:00 +21°C° 0.1 mm 4 m/S 741 mmHg 60%
    16:00 +21°C° 0.1 mm 4 m/S 740 mmHg 62%
    17:00 +20°C° 0.1 mm 3 m/S 740 mmHg 65%
    18:00 +19°C° 0.1 mm 3 m/S 740 mmHg 68%
    19:00 +19°C° 0.1 mm 2 m/S 740 mmHg 72%
    20:00 +17°C° 0 mm 3 m/S 740 mmHg 74%
    21:00 +16°C° 0 mm 3 m/S 740 mmHg 77%
    22:00 +14°C° 0 mm 3 m/S 740 mmHg 80%
    23:00 +13°C° 0 mm 3 m/S 740 mmHg 83%
    Mehr zeigen